Kimball, NE

5:36 AM MST on December 03, 2016 (GMT -0700)
Kimball Municipal-Arraj

Weather History for KIBM - April, 2013

Change the Weather History Date:

Thursday, April 25, 2013

  Actual Average (KSNY) Record (KSNY)
Temperature  
Mean Temperature 46 °F 51 °F  
Max Temperature 67 °F 65 °F 87 °F (1949)
Min Temperature 26 °F 36 °F 16 °F (2002)
Degree Days  
Heating Degree Days 18 14  
Month to date heating degree days 462  
Since 1 July heating degree days 5847  
Cooling Degree Days 0 0  
Month to date cooling degree days 0  
Year to date cooling degree days 0  
Moisture  
Dew Point 17 °F    
Average Humidity 42    
Maximum Humidity 81    
Minimum Humidity 9    
Precipitation  
Precipitation 0.00 in 0.08 in 1.03 in (1973)
Month to date precipitation 1.62  
Year to date precipitation 3.24  
Sea Level Pressure  
Sea Level Pressure 30.02 in    
Wind  
Wind Speed 7 mph (SW)    
Max Wind Speed 14 mph    
Max Gust Speed 21 mph    
Visibility 10 miles    
Events      
T = Trace of Precipitation, MM = Missing Value Source: NWS Daily Summary

Daily Weather History Graph

Daily Weather History Graph

Search for Another Location

Airport or City:

Trip Planner

Search our weather history database for the weather conditions in past years. The results will help you decide how hot, cold, wet, or windy it might be!

Date:

Astronomy

Apr. 25, 2013 Rise Set
Actual Time 7:00 AM CDT 8:45 PM CDT
Civil Twilight 6:30 AM CDT 9:15 PM CDT
Nautical Twilight 5:54 AM CDT 9:51 PM CDT
Astronomical Twilight 5:16 AM CDT 10:29 PM CDT
Moon 9:02 PM CDT (4/25) 6:44 AM CDT (4/25)
Length of Visible Light 14h 44m
Length of Day
13h 45m
Full, 100% of the Moon is Illuminated
Apr 25
Full
Apr 25
Full
May 2
Last Quarter
May 9
New
May 17
First Quarter

Hourly Weather History & Observations

Time (CDT) Temp. Windchill Dew Point Humidity Pressure Visibility Wind Dir Wind Speed Gust Speed Precip Events Conditions
12:15 AM 30.2 °F 23.4 °F 23.9 °F 77% 30.17 in 10.0 mi South 6.9 mph - N/A   Clear
12:35 AM 28.8 °F 22.6 °F 22.8 °F 78% 30.16 in 10.0 mi SSW 5.8 mph - N/A   Clear
12:55 AM 28.8 °F 20.2 °F 23.0 °F 79% 30.16 in 10.0 mi South 9.2 mph - N/A   Clear
1:15 AM 29.1 °F 22.1 °F 23.2 °F 78% 30.16 in 10.0 mi South 6.9 mph - N/A   Clear
1:35 AM 28.9 °F 20.4 °F 23.7 °F 81% 30.15 in 10.0 mi South 9.2 mph - N/A   Clear
1:55 AM 29.7 °F 22.8 °F 23.4 °F 77% 30.14 in 10.0 mi South 6.9 mph - N/A   Clear
2:15 AM 29.1 °F 21.3 °F 23.5 °F 80% 30.14 in 10.0 mi South 8.1 mph - N/A   Clear
2:35 AM 30.2 °F 24.3 °F 23.5 °F 76% 30.14 in 10.0 mi South 5.8 mph - N/A   Clear
2:55 AM 30.7 °F - 23.0 °F 73% 30.14 in 10.0 mi Calm Calm - N/A   Clear
3:15 AM 30.2 °F - 23.0 °F 75% 30.13 in 10.0 mi Calm Calm - N/A   Clear
3:35 AM 29.5 °F 24.5 °F 22.8 °F 76% 30.12 in 10.0 mi SSW 4.6 mph - N/A   Clear
3:55 AM 29.7 °F 22.0 °F 23.0 °F 76% 30.11 in 10.0 mi South 8.1 mph - N/A   Clear
4:15 AM 28.4 °F 23.3 °F 22.3 °F 78% 30.11 in 10.0 mi SW 4.6 mph - N/A   Clear
4:35 AM 28.6 °F 23.5 °F 22.1 °F 77% 30.11 in 10.0 mi WSW 4.6 mph - N/A   Clear
4:55 AM 30.6 °F 24.7 °F 22.1 °F 71% 30.10 in 10.0 mi SW 5.8 mph - N/A   Clear
5:15 AM 30.0 °F 22.4 °F 21.7 °F 71% 30.10 in 10.0 mi SW 8.1 mph - N/A   Clear
5:35 AM 28.6 °F 20.7 °F 21.2 °F 74% 30.09 in 10.0 mi WSW 8.1 mph - N/A   Clear
5:55 AM 26.8 °F 17.7 °F 21.0 °F 79% 30.09 in 10.0 mi SW 9.2 mph - N/A   Clear
6:15 AM 30.6 °F 25.8 °F 22.8 °F 73% 30.09 in 10.0 mi SW 4.6 mph - N/A   Clear
6:35 AM 30.0 °F 25.2 °F 22.8 °F 75% 30.08 in 10.0 mi West 4.6 mph - N/A   Clear
6:55 AM 31.5 °F 25.8 °F 23.7 °F 73% 30.08 in 10.0 mi SSW 5.8 mph - N/A   Clear
7:15 AM 31.1 °F 25.4 °F 23.5 °F 74% 30.08 in 10.0 mi WSW 5.8 mph - N/A   Clear
7:35 AM 32.7 °F 25.0 °F 25.2 °F 74% 30.08 in 10.0 mi SW 9.2 mph - N/A   Clear
7:55 AM 34.2 °F 27.5 °F 26.4 °F 73% 30.07 in 10.0 mi SW 8.1 mph - N/A   Clear
8:15 AM 35.2 °F 30.3 °F 27.1 °F 72% 30.07 in 10.0 mi WSW 5.8 mph - N/A   Clear
8:35 AM 37.6 °F 33.1 °F 28.0 °F 68% 30.07 in 10.0 mi SW 5.8 mph - N/A   Clear
8:55 AM 40.1 °F 35.3 °F 29.1 °F 65% 30.06 in 10.0 mi WSW 6.9 mph - N/A   Clear
9:15 AM 44.6 °F 38.8 °F 28.8 °F 54% 30.06 in 10.0 mi SW 11.5 mph - N/A   Clear
9:35 AM 48.0 °F - 27.9 °F 46% 30.06 in 10.0 mi WSW 9.2 mph - N/A   Clear
9:55 AM 50.9 °F - 26.2 °F 38% 30.06 in 10.0 mi WSW 10.4 mph - N/A   Clear
10:15 AM 51.8 °F - 24.8 °F 35% 30.05 in 10.0 mi WSW 8.1 mph - N/A   Clear
10:35 AM 54.3 °F - 23.0 °F 30% 30.04 in 10.0 mi SW 9.2 mph - N/A   Clear
10:55 AM 56.8 °F - 20.7 °F 25% 30.04 in 10.0 mi SW 8.1 mph - N/A   Clear
11:15 AM 58.5 °F - 12.9 °F 17% 30.04 in 10.0 mi West 8.1 mph - N/A   Clear
11:35 AM 59.4 °F - 8.6 °F 13% 30.04 in 10.0 mi WSW 10.4 mph 16.1 mph N/A   Clear
11:55 AM 60.1 °F - 8.1 °F 13% 30.03 in 10.0 mi SSW 8.1 mph - N/A   Clear
12:15 PM 60.3 °F - 6.4 °F 12% 30.03 in 10.0 mi SW 6.9 mph - N/A   Clear
12:35 PM 61.9 °F - 7.0 °F 11% 30.01 in 10.0 mi West 6.9 mph - N/A   Clear
12:55 PM 61.0 °F - 7.2 °F 12% 30.00 in 10.0 mi WSW 9.2 mph - N/A   Clear
1:15 PM 61.9 °F - 7.3 °F 12% 30.00 in 10.0 mi SW 6.9 mph - N/A   Clear
1:35 PM 63.1 °F - 7.9 °F 11% 29.99 in 10.0 mi SW 11.5 mph 19.6 mph N/A   Clear
1:55 PM 63.1 °F - 5.5 °F 10% 29.97 in 10.0 mi WSW 6.9 mph - N/A   Clear
2:15 PM 63.3 °F - 6.8 °F 11% 29.96 in 10.0 mi SW 4.6 mph - N/A   Clear
2:35 PM 64.4 °F - 6.1 °F 10% 29.95 in 10.0 mi South 8.1 mph 20.7 mph N/A   Clear
2:55 PM 65.5 °F - 4.1 °F 9% 29.94 in 10.0 mi SW 5.8 mph 19.6 mph N/A   Clear
3:15 PM 65.7 °F - 5.9 °F 10% 29.94 in 10.0 mi West 4.6 mph - N/A   Clear
3:35 PM 67.1 °F - 8.1 °F 10% 29.93 in 10.0 mi West 10.4 mph 20.7 mph N/A   Clear
3:55 PM 64.9 °F - 5.7 °F 10% 29.92 in 10.0 mi SSW 13.8 mph 19.6 mph N/A   Clear
4:15 PM 67.5 °F - 6.8 °F 9% 29.91 in 10.0 mi WSW 12.7 mph 18.4 mph N/A   Clear
4:35 PM 67.6 °F - 6.4 °F 9% 29.90 in 10.0 mi West 11.5 mph 18.4 mph N/A   Clear
4:55 PM 66.9 °F - 8.6 °F 10% 29.89 in 10.0 mi SW 13.8 mph 18.4 mph N/A   Clear
5:15 PM 65.3 °F - 8.6 °F 11% 29.89 in 10.0 mi WSW 11.5 mph - N/A   Clear
5:35 PM 66.0 °F - 9.0 °F 11% 29.89 in 10.0 mi WSW 12.7 mph 20.7 mph N/A   Clear
5:55 PM 64.6 °F - 8.1 °F 11% 29.89 in 10.0 mi SW 9.2 mph - N/A   Clear
6:15 PM 64.8 °F - 8.4 °F 11% 29.89 in 10.0 mi WNW 6.9 mph 16.1 mph N/A   Clear
6:35 PM 65.5 °F - 9.1 °F 11% 29.89 in 10.0 mi SW 9.2 mph - N/A   Clear
6:55 PM 64.8 °F - 10.2 °F 12% 29.90 in 10.0 mi West 6.9 mph 18.4 mph N/A   Clear
7:15 PM 64.6 °F - 11.1 °F 12% 29.90 in 10.0 mi WSW 9.2 mph - N/A   Clear
7:35 PM 64.2 °F - 11.5 °F 13% 29.90 in 10.0 mi WNW 8.1 mph - N/A   Clear
7:55 PM 62.6 °F - 13.5 °F 15% 29.91 in 10.0 mi West 6.9 mph - N/A   Clear
8:15 PM 59.0 °F - 16.2 °F 19% 29.91 in 10.0 mi WSW 4.6 mph - N/A   Clear
8:35 PM 58.6 °F - 13.5 °F 17% 29.92 in 10.0 mi SW 3.5 mph - N/A   Clear
8:55 PM 55.6 °F - 15.8 °F 21% 29.92 in 10.0 mi SW 3.5 mph - N/A   Clear
9:15 PM 49.6 °F - 19.2 °F 30% 29.93 in 10.0 mi West 3.5 mph - N/A   Clear
9:35 PM 47.8 °F - 19.9 °F 33% 29.94 in 10.0 mi West 4.6 mph - N/A   Clear
9:55 PM 47.3 °F - 20.3 °F 34% 29.94 in 10.0 mi West 4.6 mph - N/A   Clear
10:15 PM 43.2 °F 39.7 °F 21.4 °F 42% 29.95 in 10.0 mi WNW 5.8 mph - N/A   Clear
10:35 PM 42.4 °F 38.8 °F 21.7 °F 44% 29.95 in 10.0 mi WSW 5.8 mph - N/A   Clear
10:55 PM 43.2 °F 41.5 °F 20.5 °F 40% 29.95 in 10.0 mi WSW 3.5 mph - N/A   Clear
11:15 PM 40.3 °F 34.4 °F 22.6 °F 49% 29.96 in 10.0 mi SW 9.2 mph - N/A   Clear
11:35 PM 39.4 °F 35.2 °F 24.1 °F 54% 29.96 in 10.0 mi West 5.8 mph - N/A   Clear
11:55 PM 37.6 °F 31.0 °F 24.3 °F 59% 29.96 in 10.0 mi West 9.2 mph - N/A   Clear